Regional Weather Roundup
Issued by NWS

Home | Current Version | Previous Version | Graphics & Text | Print | Product List | Glossary Off
Versions: 1 2 3 4 5 6 7 8 9 10 11 12 13 14 15 16 17 18 19 20 21 22 23 24 25 26 27 28 29 30 31 32 33 34 35 36 37 38 39 40 41 42 43 44 45 46 47 48 49 50

571
ASUS43 KMPX 291910
RWRMN
WEATHER ROUNDUP FOR MINNESOTA
NATIONAL WEATHER SERVICE TWIN CITIES/CHANHASSEN MN
200 PM CDT MON AUG 29 2016


NOTE: "FAIR" INDICATES FEW OR NO CLOUDS BELOW 12,000 FEET WITH NO
SIGNIFICANT WEATHER AND/OR OBSTRUCTIONS TO VISIBILITY. N/A MEANS
CURRENT SKY AND/OR WEATHER CONDITIONS ARE NOT AVAILABLE.

MNZ060>063-068>070-292000-
   Twin Cities Metro

CITY           SKY/WX    TMP DP  RH WIND       PRES   REMARKS
TWIN CITIES    PTSUNNY   82  68  62 S15       30.15F
ST PAUL        MOSUNNY   82  72  71 S13       30.15F
CRYSTAL        MOSUNNY   84  67  56 S14G23    30.13S
BLAINE         PTSUNNY   84  70  61 S13G22    30.14S
LAKEVILLE      CLOUDY    79  72  78 S8        30.18S
EDEN PRAIRIE   CLOUDY    82  69  64 S14       30.15S
LAKEVILLE      CLOUDY    79  72  78 S8        30.18S
SOUTH ST PAUL  CLOUDY    81  69  67 S10G16    30.15F
LAKE ELMO      FAIR      81  72  74 S15       30.16S
$$
MNZ001>005-007-008-013>017-022>024-027-028-292000-
   Northwest Minnesota

CITY           SKY/WX    TMP DP  RH WIND       PRES   REMARKS
BEMIDJI        CLOUDY    77  69  75 W13G18    30.15S
HALLOCK        SUNNY     75  59  57 NW13      30.16R
ROSEAU         SUNNY     79  66  65 NW13      30.13S
WARROAD        MOSUNNY   75  70  83 W7        30.13S
THIEF RVR FALL PTSUNNY   75  66  73 NW14      30.16F
CROOKSTON      MOSUNNY   75  66  73 NW10G18   30.16S
FOSSTON        CLOUDY    72  66  83 W8        30.17S
DETROIT LAKES  PTSUNNY   79  70  73 NW10      30.18S
MOORHEAD       MOSUNNY   82  70  65 NW12      30.15S
PARK RAPIDS    PTSUNNY   83  69  62 NW14      30.15F
MAHNOMEN       CLOUDY    74  70  86 W10       30.17S
$$
MNZ006-009>011-018-025>026-292000-
   North Central Minnesota

CITY           SKY/WX    TMP DP  RH WIND       PRES   REMARKS
BAUDETTE       MOSUNNY   76  67  73 NW10      30.12R
FLAG ISLAND    MOSUNNY   72  64  78 S3        30.10S
INTL FALLS     MOSUNNY   80  68  66 NW16      30.10S
WASKISH        PTSUNNY   75  68  78 SW9       30.13S
BIG FORK       CLOUDY    77  66  69 W7        30.13S
LONGVILLE      PTSUNNY   81  70  69 W8        30.15S
GRAND RAPIDS   MOSUNNY   78  68  71 W7        30.16S
CRANE LAKE     SUNNY     77  66  69 W5        30.11F
ORR            PTSUNNY   75  64  69 NW7       30.10R
COOK           MOSUNNY   79  66  65 W9        30.12S
WALKER         CLOUDY    79  69  71 W13G21    30.15S
$$
MNZ012-019>021-037-292000-
   Northeast Minnesota

CITY           SKY/WX    TMP DP  RH WIND       PRES   REMARKS
DULUTH         PTSUNNY   78  65  63 W10       30.14R
ELY            CLOUDY    77  64  65 SW8       30.12S
HIBBING        SUNNY     77  67  71 W6        30.13S
EVELETH        CLOUDY    78  65  65 W12       30.14S
DULUTH HARBOR  CLOUDY    77  68  73 W3        30.13R
TWO HARBORS    CLOUDY    77  70  78 S6        30.12S
SILVER BAY     CLOUDY    73  66  78 SE6       30.12S
GRAND MARAIS     N/A     70  61  73 SW7       30.11S
G MARAIS ARPRT MOSUNNY   73  61  64 SW5       30.16S
$$
MNZ029>031-032-039>041-046>048-054>057-064-292000-
   West Central Minnesota

CITY           SKY/WX    TMP DP  RH WIND       PRES   REMARKS
FERGUS FALLS   CLOUDY    81  68  65 W8        30.15S
WHEATON        MOSUNNY   84  73  70 S7        30.15S HX  91
MORRIS         SUNNY     86  70  58 S15       30.13F HX  90
ALEXANDRIA     MOSUNNY   84  72  67 S9        30.17F
ELBOW LAKE     PTSUNNY   82  71  68 W10       30.16R HAZE
WADENA         SUNNY     81  68  65 W8        30.16S
GLENWOOD       SUNNY     84  72  65 SW15      30.17R
APPLETON       SUNNY     84  70  61 S6        30.13S
BENSON         SUNNY     84  70  61 SW10      30.14S
ORTONVILLE     SUNNY     82  70  65 S3        30.13F
MADISON        SUNNY     81  70  69 S10       30.14S
WILLMAR        FAIR      84  72  65 S6        30.15F
$$
MNZ033>034-036-042>043-049>051-058-059-292000-
   Central Minnesota

CITY           SKY/WX    TMP DP  RH WIND       PRES   REMARKS
ST CLOUD       SUNNY     84  72  67 S10       30.14S
SAUK CENTRE    FAIR      83  72  70 S9        30.16S
PAYNESVILLE    SUNNY     84  69  61 S12       30.16S
AITKIN         SUNNY     82  63  51 SW9       30.14S
PINE RIVER     SUNNY     81  68  65 SW7       30.18S
BRAINERD       SUNNY     80  65  59 W8        30.16S
STAPLES        SUNNY     81  64  57 W5        30.16S
LONG PRAIRIE   PTSUNNY   81  70  69 S9        30.16F
LITTLE FALLS   SUNNY     82  68  61 S10       30.15S
LITCHFIELD     MOSUNNY   84  73  70 S6        30.14F HX  91
BUFFALO        MOSUNNY   82  68  63 S13G18    30.16R
MAPLE LAKE     SUNNY     84  73  68 S9        30.15S HX  90
HUTCHINSON     SUNNY     82  73  75 S12G20    30.17S
$$
MNZ037-044-045-052-053-292000-
   East Central Minnesota

CITY           SKY/WX    TMP DP  RH WIND       PRES   REMARKS
PRINCETON      SUNNY     88  72  58 S9G17     30.14S HX  94
MORA           SUNNY     82  68  61 SW7       30.16R
CAMBRIDGE      SUNNY     88  70  55 S7        30.13R HX  92
RUSH CITY      RAIN      84  70  61 S8        30.14S
MOOSE LAKE     SUNNY     79  64  61 S8        30.13S
HINCKLEY       FAIR      82  70  65 SW10      30.14R
CLOQUET        MOSUNNY   79  63  57 SW9       30.14S
MCGREGOR       SUNNY     79  64  61 W8        30.16R
$$
MNZ071>073-080-081-089-090-097-098-292000-
   Southwest Minnesota

CITY           SKY/WX    TMP DP  RH WIND       PRES   REMARKS
MONTEVIDEO     SUNNY     82  72  69 SW10      30.15F
GRANITE FALLS  MOSUNNY   84  74  71 S10       30.16F HX  91
CANBY          SUNNY     84  72  67 SE10      30.15F
MARSHALL       PTSUNNY   82  73  74 S12G20    30.15F
REDWOOD FALLS  MOSUNNY   82  70  66 S16       30.15F
OLIVIA         MOSUNNY   81  70  69 S12       30.14F
PIPESTONE      PTSUNNY   82  72  69 S10       30.19F
WINDOM         PTSUNNY   82  72  69 S7        30.19F
WORTHINGTON    CLOUDY    81  71  71 S9        30.20F
JACKSON        PTSUNNY   84  68  58 S10       30.20F
TRACY          CLOUDY    82  74  76 S8        30.18S
SLAYTON        CLOUDY    81  72  74 S12       30.20S
$$
MNZ065>067-074>077-082>085-091>093-292000-
   South Central Minnesota

CITY           SKY/WX    TMP DP  RH WIND       PRES   REMARKS
NEW ULM          N/A     81  72  74 S9        30.18R
ST JAMES       CLOUDY    79  68  69 SE9       30.18F
FAIRMONT       PTSUNNY   83  74  74 S13       30.20F
GLENCOE        CLOUDY    82  73  76 S7        30.16S
FARIBAULT      CLOUDY    82  72  69 SE7       30.19S
OWATONNA       CLOUDY    84  72  65 S10       30.19F
WASECA         MOSUNNY   79  70  73 S10       30.20F
ALBERT LEA     CLOUDY    81  73  78 S9        30.21F
$$
MNZ078>079-086>088-094>096-292000-
   Southeast Minnesota

CITY           SKY/WX    TMP DP  RH WIND       PRES   REMARKS
ROCHESTER      CLOUDY    82  70  66 SE8       30.21F
RED WING       CLOUDY    79  70  73 CALM      30.18R
STANTON        CLOUDY    82  70  65 S9        30.17S
DODGE CENTER   MOSUNNY   82  70  65 S9        30.21F
WINONA         PTSUNNY   79  70  73 SE5       30.19F
AUSTIN         CLOUDY    79  72  78 S5        30.22F
PRESTON        CLOUDY    79  70  73 S7        30.22F
$$
ABBREVIATIONS USED IN REMARKS
   TC - TEMPERATURES IN CELSIUS
  WCI - WIND CHILL INDEX
   HX - HEAT INDEX
  VSB - VISIBILITY
$$




USA.gov is the U.S. government's official web portal to all federal, state and local government web resources and services.